DW6222 Weather Reports


Display with metric or nautical units.
time (UTC)temp
F
wind
direction
speed
MPH
gust
MPH
rain 1hr
in
rain 24hr
in
rain mn
in
humidity
%
barometer
mb
20260902031602 73 324 5.0 8.0 0.00 0.00 0.00 72 1011.5
20260902030043 73 305 5.0 9.0 0.00 0.00 0.00 70 1011.6
20260902024559 73 295 6.0 8.0 0.00 0.00 0.00 69 1011.5
20260902023053 74 290 8.0 11.0 0.00 0.00 0.00 67 1011.5
20260902021558 74 258 6.0 11.0 0.00 0.00 0.00 68 1011.5
20260902020043 74 273 7.0 10.0 0.00 0.00 0.00 67 1011.3
20260902014555 74 267 6.0 8.0 0.00 0.00 0.00 65 1011.1
20260902013051 75 296 3.0 5.0 0.00 0.00 0.00 62 1011.0
20260902011549 76 299 3.0 5.0 0.00 0.00 0.00 62 1010.9
20260902010055 75 293 2.0 4.0 0.00 0.00 0.00 63 1010.8
20260902004556 75 298 1.0 3.0 0.00 0.00 0.00 65 1010.5
20260902003051 76 294 5.0 8.0 0.00 0.00 0.00 63 1010.8
20260902001556 76 290 7.0 10.0 0.00 0.00 0.00 62 1010.6
20260902000051 76 288 5.0 9.0 0.00 0.00 0.00 65 1010.7
20260901234557 76 286 7.0 11.0 0.00 0.00 0.00 63 1010.5
20260901233051 77 282 8.0 11.0 0.00 0.00 0.00 58 1010.3
20260901231544 78 285 10.0 13.0 0.00 0.00 0.00 59 1010.3
20260901230105 78 292 9.0 13.0 0.00 0.00 0.00 58 1010.1
20260901224549 78 284 11.0 14.0 0.00 0.00 0.00 57 1010.0
20260901223101 79 306 11.0 17.0 0.00 0.00 0.00 56 1010.2
20260901221546 78 285 12.0 17.0 0.00 0.00 0.00 57 1010.1
20260901220116 79 284 15.0 20.0 0.00 0.00 0.00 54 1010.0
20260901214549 80 299 15.0 20.0 0.00 0.00 0.00 53 1010.1
20260901213055 80 295 15.0 20.0 0.00 0.00 0.00 51 1010.1
20260901211556 80 302 13.0 16.0 0.00 0.00 0.00 53 1009.8
20260901210055 80 277 11.0 16.0 0.00 0.00 0.00 57 1009.8
20260901204553 81 272 16.0 22.0 0.00 0.00 0.00 50 1009.7
20260901203101 81 261 18.0 27.0 0.00 0.00 0.00 50 1009.7
20260901201602 81 271 15.0 24.0 0.00 0.00 0.00 49 1009.6
20260901200052 81 290 18.0 24.0 0.00 0.00 0.00 48 1009.8
20260901194555 82 269 11.0 18.0 0.00 0.00 0.00 49 1009.9
20260901193049 81 284 14.0 18.0 0.00 0.00 0.00 48 1010.1
20260901191611 80 295 16.0 22.0 0.00 0.00 0.00 51 1010.2
20260901190121 80 292 17.0 22.0 0.00 0.00 0.00 48 1010.3
20260901184610 80 285 15.0 19.0 0.00 0.00 0.00 49 1010.3
20260901183051 80 276 12.0 19.0 0.00 0.00 0.00 56 1010.7
20260901181557 79 265 9.0 14.0 0.00 0.00 0.00 55 1011.0
20260901180056 79 277 14.0 18.0 0.00 0.00 0.00 54 1011.1
20260901174558 78 277 13.0 20.0 0.00 0.00 0.00 54 1011.2
20260901173050 78 288 14.0 20.0 0.00 0.00 0.00 59 1011.4
20260901171547 76 315 4.0 10.0 0.00 0.00 0.00 63 1011.5
20260901170059 74 189 6.0 9.0 0.00 0.00 0.00 73 1011.5
20260901164556 73 184 6.0 9.0 0.00 0.00 0.00 76 1011.6
20260901163051 72 194 6.0 11.0 0.00 0.00 0.00 78 1011.7
20260901161604 71 181 6.0 10.0 0.00 0.00 0.00 82 1011.9
20260901160113 70 196 6.0 10.0 0.00 0.00 0.00 87 1012.1
20260901154556 70 198 5.0 9.0 0.00 0.00 0.00 88 1012.1
20260901153107 69 204 7.0 9.0 0.00 0.00 0.00 88 1012.0
20260901151543 69 192 5.0 8.0 0.00 0.00 0.00 88 1012.1
20260901150043 70 202 5.0 9.0 0.00 0.00 0.00 88 1012.0
20260901144556 70 211 5.0 8.0 0.00 0.00 0.00 79 1012.0
20260901143111 70 218 4.0 6.0 0.00 0.00 0.00 79 1011.9
20260901141557 69 184 5.0 7.0 0.00 0.00 0.00 81 1011.9
20260901140057 69 188 5.0 7.0 0.00 0.00 0.00 83 1011.8
20260901134555 69 223 3.0 5.0 0.00 0.00 0.00 80 1011.8
20260901133048 70 229 3.0 11.0 0.00 0.00 0.00 79 1011.9
20260901131555 70 277 7.0 12.0 0.00 0.00 0.00 74 1011.6
20260901130054 70 292 10.0 13.0 0.00 0.00 0.00 72 1011.9
20260901124549 69 271 8.0 12.0 0.00 0.00 0.00 76 1012.0
20260901123114 68 0 0.0 3.0 0.00 0.00 0.00 83 1011.7
20260901121559 67 234 2.0 4.0 0.00 0.00 0.00 84 1011.5
20260901120100 67 232 2.0 4.0 0.00 0.00 0.00 87 1011.3
20260901114547 67 229 3.0 6.0 0.00 0.00 0.00 86 1011.1
20260901113053 67 218 4.0 6.0 0.00 0.00 0.00 91 1011.0
20260901111552 67 198 5.0 9.0 0.00 0.00 0.00 91 1010.8
20260901110045 68 214 6.0 10.0 0.00 0.00 0.00 90 1010.8
20260901104555 69 194 5.0 8.0 0.00 0.00 0.00 84 1010.6
20260901103052 68 207 4.0 7.0 0.00 0.00 0.00 84 1010.7
20260901101548 68 200 3.0 6.0 0.00 0.00 0.00 89 1010.8
20260901100056 67 190 3.0 6.0 0.00 0.00 0.00 91 1011.0
20260901094555 66 160 3.0 5.0 0.00 0.00 0.00 91 1011.0
20260901093050 67 168 1.0 6.0 0.00 0.00 0.00 92 1011.0
20260901091544 66 161 2.0 4.0 0.00 0.00 0.00 93 1010.9
20260901090056 66 172 0.0 4.0 0.00 0.00 0.00 93 1010.8
20260901084555 66 172 1.0 4.0 0.00 0.00 0.00 93 1010.8
20260901083048 66 163 1.0 4.0 0.00 0.00 0.00 94 1010.8
20260901081543 66 152 1.0 5.0 0.00 0.00 0.00 94 1010.8
20260901080057 66 154 1.0 5.0 0.00 0.00 0.00 96 1010.9
20260901074555 66 149 0.0 4.0 0.00 0.00 0.00 96 1011.0
20260901073047 66 156 1.0 3.0 0.00 0.00 0.00 96 1010.9
20260901071557 67 0 1.0 3.0 0.00 0.00 0.00 96 1010.9
20260901064552 68 0 0.0 0.0 0.00 0.03 0.00 97 1011.0
20260901063111 67 0 0.0 0.0 0.00 0.03 0.00 97 1011.0
20260901061622 67 175 0.0 3.0 0.00 0.03 0.00 97 1010.9
20260901060100 67 175 1.0 3.0 0.00 0.03 0.00 97 1010.8
20260901054553 67 175 1.0 3.0 0.00 0.03 0.00 98 1010.8
20260901053105 68 175 0.0 3.0 0.00 0.03 0.00 98 1010.9
20260901051556 68 175 0.0 1.0 0.00 0.03 0.00 98 1010.9
20260901050056 68 0 0.0 2.0 0.00 0.03 0.00 98 1011.0
20260901044600 68 175 1.0 4.0 0.00 0.03 0.03 98 1011.0
20260901043101 68 218 2.0 4.0 0.00 0.03 0.03 98 1011.0
20260901041553 68 0 0.0 2.0 0.00 0.03 0.03 98 1010.8
20260901040054 68 194 1.0 3.0 0.00 0.03 0.03 98 1010.7
20260901034549 69 194 2.0 4.0 0.00 0.03 0.03 97 1010.5
20260901033059 69 76 1.0 3.0 0.00 0.03 0.03 97 1010.7